Starlink 5482

operational
NORAD ID: 56358 Int'l Des: 2023-058 Owner: SPXS Country: US Constellation: starlink
LEOCIRCULARRETROGRADESSO

Über Starlink 5482

Beschreibung wird geladen...

Live-Position

3D-Globus wird geladen...

Nächste Überflüge

Höhenverlauf

Altitude vs Time

uPlot chart will show altitude changes over time

Zweizeiliger Elementsatz

1 56358U 23058AT 26062.49135393 .00000640 00000-0 54398-4 0 9991
2 56358 97.6070 64.1874 0001711 102.3086 257.8330 15.01261752157201
Epoch: 3. März 2026 • Age: 21 hours

Aktueller Status

Höhe 564.8 km
Geschwindigkeit 7.58 km/s
Subsatellitenpunkt 14.72°N, 137.06°E
Startdatum 27. Apr. 2023
Alter 2.8 years
Typ internet

Technische Details

Klassifizierung Payload
Masse 300.00 kg
Trockenmasse 260.00 kg
Gesamtmasse 300.00 kg
Länge 0.20 m
Durchmesser 2.80 m
Spannweite 9.00 m
Form Box + pan
Hersteller SPXS
Bus-Typ Starlink
Phasenstatus In Orbit
Besitzer/Staat SPXS/US

Große Konstellationen

Loading constellations...